| time (UTC) | temp F | wind direction | speed MPH | gust MPH | rain 1hr in | rain 24hr in | rain mn in | humidity % | barometer mb |
| 20260506034514 | 34 | 251 | 0.0 | 2.0 | 0.01 | 0.01 | 0.01 | 88 | 1003.5 |
| 20260506033014 | 33 | 251 | 0.0 | 3.0 | 0.00 | 0.00 | 0.00 | 88 | 1003.4 |
| 20260506031516 | 33 | 259 | 2.0 | 4.0 | 0.00 | 0.00 | 0.00 | 89 | 1003.4 |
| 20260506030011 | 33 | 244 | 3.0 | 4.0 | 0.00 | 0.00 | 0.00 | 89 | 1003.3 |
| 20260506024507 | 33 | 251 | 2.0 | 3.0 | 0.00 | 0.00 | 0.00 | 88 | 1003.1 |
| 20260506023005 | 33 | 281 | 2.0 | 3.0 | 0.00 | 0.00 | 0.00 | 88 | 1003.1 |
| 20260506021506 | 33 | 278 | 2.0 | 3.0 | 0.00 | 0.00 | 0.00 | 89 | 1003.0 |
| 20260506020002 | 33 | 278 | 0.0 | 1.0 | 0.00 | 0.00 | 0.00 | 89 | 1002.9 |
| 20260506014600 | 0 | 0.0 | 0.0 | 0.00 | 0.00 | 0.00 | 1002.9 | ||
| 20260506013054 | 0 | 0.0 | 0.0 | 0.00 | 0.00 | 0.00 | 1002.7 | ||
| 20260506011550 | 0 | 0.0 | 0.0 | 0.00 | 0.00 | 0.00 | 1002.6 | ||
| 20260506010048 | 0 | 0.0 | 0.0 | 0.00 | 0.00 | 0.00 | 1002.6 | ||
| 20260506004544 | 0 | 0.0 | 0.0 | 0.00 | 0.00 | 0.00 | 1002.5 | ||
| 20260506003037 | 0 | 0.0 | 0.0 | 0.00 | 0.00 | 0.00 | 1002.4 | ||
| 20260506001542 | 0 | 0.0 | 0.0 | 0.00 | 0.00 | 0.00 | 1002.4 | ||
| 20260506000036 | 0 | 0.0 | 0.0 | 0.00 | 0.00 | 0.00 | 1002.4 | ||
| 20260505234524 | 0 | 0.0 | 0.0 | 0.00 | 0.00 | 0.00 | 1002.2 | ||
| 20260505233019 | 0 | 0.0 | 0.0 | 0.00 | 0.00 | 0.00 | 1002.2 | ||
| 20260505231515 | 0 | 0.0 | 0.0 | 0.00 | 0.00 | 0.00 | 1002.1 | ||
| 20260505230015 | 0 | 0.0 | 0.0 | 0.00 | 0.00 | 0.00 | 1002.2 | ||
| 20260505224507 | 0 | 0.0 | 0.0 | 0.00 | 0.00 | 0.00 | 1002.1 | ||
| 20260505223008 | 32 | 167 | 3.0 | 3.0 | 0.00 | 0.00 | 0.00 | 92 | 1002.1 |
| 20260505221502 | 0 | 0.0 | 0.0 | 0.00 | 0.00 | 0.00 | 1001.9 | ||
| 20260505220100 | 32 | 76 | 1.0 | 5.0 | 0.00 | 0.00 | 0.00 | 90 | 1001.9 |
| 20260505214606 | 33 | 29 | 4.0 | 12.0 | 0.00 | 0.00 | 0.00 | 89 | 1001.7 |
| 20260505213059 | 34 | 71 | 1.0 | 5.0 | 0.00 | 0.00 | 0.00 | 85 | 1001.6 |
| 20260505211606 | 35 | 92 | 1.0 | 6.0 | 0.00 | 0.00 | 0.00 | 84 | 1001.5 |
| 20260505210104 | 35 | 17 | 3.0 | 9.0 | 0.00 | 0.00 | 0.00 | 83 | 1001.4 |
| 20260505204553 | 36 | 319 | 4.0 | 10.0 | 0.00 | 0.00 | 0.00 | 82 | 1001.4 |
| 20260505203052 | 36 | 9 | 5.0 | 13.0 | 0.00 | 0.00 | 0.00 | 82 | 1001.2 |
| 20260505201554 | 36 | 9 | 6.0 | 11.0 | 0.00 | 0.00 | 0.00 | 81 | 1001.2 |
| 20260505200050 | 36 | 339 | 3.0 | 9.0 | 0.00 | 0.00 | 0.00 | 79 | 1001.1 |
| 20260505194548 | 36 | 314 | 3.0 | 9.0 | 0.00 | 0.00 | 0.00 | 78 | 1001.0 |
| 20260505193050 | 36 | 13 | 4.0 | 9.0 | 0.00 | 0.00 | 0.00 | 79 | 1001.0 |
| 20260505191552 | 36 | 18 | 3.0 | 9.0 | 0.00 | 0.00 | 0.00 | 79 | 1000.9 |
| 20260505184554 | 36 | 28 | 6.0 | 13.0 | 0.00 | 0.00 | 0.00 | 77 | 1000.7 |
| 20260505183049 | 36 | 321 | 7.0 | 12.0 | 0.00 | 0.00 | 0.00 | 78 | 1000.6 |
| 20260505181541 | 36 | 349 | 4.0 | 10.0 | 0.00 | 0.00 | 0.00 | 78 | 1000.6 |
| 20260505180042 | 36 | 327 | 5.0 | 12.0 | 0.00 | 0.00 | 0.00 | 77 | 1000.4 |
| 20260505174542 | 36 | 12 | 6.0 | 13.0 | 0.00 | 0.00 | 0.00 | 78 | 1000.3 |
| 20260505173041 | 36 | 302 | 7.0 | 14.0 | 0.00 | 0.00 | 0.00 | 77 | 1000.3 |
| 20260505171541 | 37 | 329 | 5.0 | 15.0 | 0.00 | 0.00 | 0.00 | 75 | 1000.2 |
| 20260505170036 | 37 | 346 | 5.0 | 11.0 | 0.00 | 0.00 | 0.00 | 74 | 1000.3 |
| 20260505164537 | 37 | 5 | 6.0 | 13.0 | 0.00 | 0.00 | 0.00 | 75 | 1000.1 |
| 20260505163033 | 37 | 329 | 7.0 | 13.0 | 0.00 | 0.00 | 0.00 | 74 | 1000.0 |
| 20260505161532 | 38 | 351 | 5.0 | 12.0 | 0.00 | 0.00 | 0.00 | 73 | 1000.0 |
| 20260505153030 | 38 | 349 | 5.0 | 12.0 | 0.00 | 0.00 | 0.00 | 71 | 1000.0 |
| 20260505151525 | 38 | 302 | 6.0 | 13.0 | 0.00 | 0.00 | 0.00 | 70 | 999.8 |
| 20260505124506 | 38 | 301 | 6.0 | 11.0 | 0.00 | 0.02 | 0.00 | 68 | 999.1 |
| 20260505123004 | 38 | 31 | 5.0 | 15.0 | 0.00 | 0.02 | 0.00 | 70 | 998.9 |
| 20260505121503 | 38 | 42 | 4.0 | 11.0 | 0.00 | 0.02 | 0.00 | 71 | 998.8 |
| 20260505120101 | 38 | 333 | 5.0 | 16.0 | 0.00 | 0.02 | 0.00 | 70 | 998.7 |
| 20260505114603 | 38 | 16 | 4.0 | 16.0 | 0.00 | 0.02 | 0.00 | 69 | 998.6 |
| 20260505113057 | 38 | 338 | 7.0 | 14.0 | 0.00 | 0.02 | 0.00 | 70 | 998.4 |
| 20260505111559 | 38 | 18 | 4.0 | 9.0 | 0.00 | 0.02 | 0.00 | 72 | 998.3 |
| 20260505101546 | 38 | 338 | 5.0 | 11.0 | 0.00 | 0.02 | 0.00 | 70 | 997.9 |
| 20260505100041 | 38 | 355 | 5.0 | 11.0 | 0.00 | 0.02 | 0.00 | 72 | 997.8 |
| 20260505094537 | 37 | 299 | 4.0 | 11.0 | 0.00 | 0.02 | 0.00 | 73 | 997.7 |
| 20260505093043 | 37 | 337 | 4.0 | 10.0 | 0.00 | 0.02 | 0.00 | 76 | 997.6 |
| 20260505091541 | 37 | 302 | 5.0 | 10.0 | 0.00 | 0.02 | 0.00 | 77 | 997.5 |
| 20260505090044 | 37 | 330 | 6.0 | 11.0 | 0.00 | 0.02 | 0.00 | 78 | 997.5 |
| 20260505084529 | 36 | 9 | 8.0 | 13.0 | 0.00 | 0.02 | 0.00 | 79 | 997.3 |
| 20260505083028 | 36 | 24 | 6.0 | 14.0 | 0.00 | 0.02 | 0.00 | 79 | 997.3 |
| 20260505081536 | 36 | 294 | 5.0 | 14.0 | 0.00 | 0.02 | 0.00 | 79 | 997.2 |
| 20260505080046 | 36 | 351 | 5.0 | 13.0 | 0.00 | 0.02 | 0.00 | 79 | 997.1 |
| 20260505074525 | 36 | 355 | 8.0 | 13.0 | 0.00 | 0.02 | 0.00 | 80 | 997.0 |
| 20260505073024 | 36 | 324 | 6.0 | 14.0 | 0.00 | 0.02 | 0.00 | 81 | 996.9 |
| 20260505071522 | 36 | 311 | 3.0 | 13.0 | 0.00 | 0.02 | 0.00 | 82 | 996.8 |
| 20260505070023 | 36 | 340 | 5.0 | 14.0 | 0.00 | 0.02 | 0.00 | 82 | 996.8 |
| 20260505064518 | 35 | 78 | 8.0 | 14.0 | 0.00 | 0.02 | 0.00 | 82 | 996.7 |
| 20260505063017 | 35 | 34 | 7.0 | 14.0 | 0.00 | 0.02 | 0.00 | 83 | 996.6 |
| 20260505061518 | 35 | 326 | 6.0 | 12.0 | 0.00 | 0.02 | 0.00 | 85 | 996.6 |
| 20260505060022 | 35 | 330 | 5.0 | 10.0 | 0.00 | 0.02 | 0.00 | 84 | 996.6 |
| 20260505054520 | 35 | 75 | 2.0 | 5.0 | 0.00 | 0.03 | 0.00 | 83 | 996.5 |
| 20260505053017 | 34 | 80 | 2.0 | 4.0 | 0.00 | 0.03 | 0.00 | 83 | 996.5 |
| 20260505051512 | 34 | 78 | 1.0 | 10.0 | 0.00 | 0.03 | 0.00 | 83 | 996.5 |
| 20260505041521 | 33 | 198 | 1.0 | 5.0 | 0.00 | 0.03 | 0.00 | 87 | 996.3 |
| 20260505040010 | 33 | 263 | 2.0 | 4.0 | 0.00 | 0.03 | 0.00 | 88 | 996.3 |